User: anonymous   Login
Location: Nantong Television Tower
(32.0188°N, 120.8512°E)
Time: 18:01:01
(UTC+08:00)
Language:

ATLAS 3B CENTAUR R/B - Orbit

View from above orbital plane
View from above orbital plane
View from above satellite
View from above satellite

Ground track
Ground track

The orbit data is extracted from the following two-line orbital elements,

1 28118U 03057B   17017.72015357  .00036964  00000-0  57553-3 0  9997
2 28118  28.1223 162.0373 3149758 338.8432  10.5994  9.17410035275721
Epoch (UTC): 17 January 2017 17:17:01
Eccentricity: 0.3149758
inclination: 28.1223°
perigee height: 225 km
apogee height: 6296 km
right ascension of ascending node: 162.0373°
argument of perigee: 338.8432°
revolutions per day: 9.17410035
mean anomaly at epoch: 10.5994°
orbit number at epoch: 27572

The dashed part of the orbit path shows where the satellite is in the earth's shadow,  

DLR